Regional Weather Roundup
Issued by NWS

Home | Current Version | Previous Version | Text Only | Print | Product List | Glossary On
Versions: 1 2 3 4 5 6 7 8 9 10 11 12 13 14 15 16 17 18 19 20 21 22 23 24 25 26 27 28 29 30 31 32 33 34 35 36 37 38 39 40 41 42 43 44 45 46 47 48 49 50
000
ASUS43 KDTX 260310
RWRMI
MICHIGAN HOURLY REGIONAL WEATHER ROUNDUP
NATIONAL WEATHER SERVICE DETROIT/PONTIAC MI
1000 PM EST TUE NOV 25 2014

NOTE: "FAIR" INDICATES FEW OR NO CLOUDS BELOW 12,000 FEET WITH NO
SIGNIFICANT WEATHER AND/OR OBSTRUCTION TO VISIBILITY.

MIZ047>049-052>055-059>063-066>070-074>076-081>083-260400-
SOUTHEAST LOWER MICHIGAN

CITY           SKY/WX    TMP DP  RH WIND       PRES   REMARKS
ADRIAN         CLOUDY    28  20  71 CALM      30.21R
ALMA           CLOUDY    29  23  77 SW7       30.16R
ANN ARBOR      CLOUDY    29  20  69 NW5       30.19R
BAD AXE        CLOUDY    31  25  77 W7        30.15R
DETROIT CITY   CLOUDY    33  21  61 SW6       30.21R
DETROIT        CLOUDY    30  21  69 SW7       30.21R
FLINT          CLOUDY    32  21  64 W3        30.19R
GROSSE ILE     CLOUDY    30  21  69 SW3       30.20S
HILLSDALE      CLOUDY    27  21  77 CALM      30.18R
HOWELL         CLOUDY    29  22  73 W3        30.18R

CITY           SKY/WX    TMP DP  RH WIND       PRES   REMARKS
JACKSON        CLOUDY    28  21  75 SW6       30.19R
LAMBERTVILLE   CLOUDY    30  21  69 CALM      30.22S
LANSING        CLOUDY    29  21  72 SW7       30.18R
LAPEER         NOT AVBL
MASON          CLOUDY    29  22  74 SW5       30.18R
MONROE         CLOUDY    28  21  74 CALM      30.20S
MT. CLEMENS    CLOUDY    32  22  68 W3        30.18R
PONTIAC        FLURRIES  29  19  66 W8        30.17R
PORT HOPE        N/A     32  24  72 W6        30.13R
PORT HURON     CLOUDY    32  25  74 CALM      30.19R
TRI CITIES     CLOUDY    31  20  63 W7        30.17R
YPSILANTI      CLOUDY    33  20  58 SW3       30.21R
$$
MIZ043>046-050>051-056>058-064>065-071>073-077>080-260400-
SOUTHWEST LOWER MICHIGAN

CITY           SKY/WX    TMP DP  RH WIND       PRES   REMARKS
BATTLE CREEK   CLOUDY    29  20  69 S8        30.19R
BENTON HARBOR  CLOUDY    26  19  74 S8        30.19R
BIG RAPIDS     CLOUDY    27  23  86 SW5       30.12S
COLDWATER      CLOUDY    28  22  76 SW3       30.19R
HOLLAND        CLOUDY    32  22  66 SW5       30.16S
GRAND RAPIDS   CLOUDY    29  21  72 S6        30.16R
KALAMAZOO      CLOUDY    28  21  75 S9        30.19R
MARSHALL       CLOUDY    27  20  76 S6        30.18R
MUSKEGON       CLOUDY    30  21  69 SW9       30.15S
$$
MIZ016>042-260400-
NORTHERN LOWER MICHIGAN

CITY           SKY/WX    TMP DP  RH WIND       PRES   REMARKS
ALPENA         CLOUDY    27  25  92 NW3       30.13R
BEAVER ISLAND  CLOUDY    28  19  67 W5        30.11R
BELLAIRE       CLOUDY    28  24  83 CALM      30.13R
CADILLAC       CLOUDY    24  20  85 W5        30.09S
CHARLEVOIX     CLOUDY    28  22  78 SW3       30.14R
FRANKFORT      CLOUDY    28  22  81 SW3       30.13R
GAYLORD        CLOUDY    24  21  88 SW8       30.08R
GRAYLING       CLOUDY    26  21  83 CALM      30.11R
HARBOR SPRINGS CLOUDY    27  24  89 CALM      30.11R
HOUGHTON LAKE  CLOUDY    26  20  77 SW8       30.11R
MANISTEE       CLOUDY    27  19  74 S5        30.14S
OSCODA         CLOUDY    29  24  82 W8        30.14R
PELLSTON       CLOUDY    25  23  92 CALM      30.11R
TRAVERSE CITY  CLOUDY    28  22  78 CALM      30.12R
$$
MIZ007>008-015-260400-
EASTERN UPPER MICHIGAN

CITY           SKY/WX    TMP DP  RH WIND       PRES   REMARKS
KINROSS        CLOUDY    23  21  93 SW5       30.09R
MACKINAC ISLAN CLOUDY    26  20  78 NW5       30.09R
NEWBERRY       CLOUDY    22  18  84 W6        30.09R
S. S. MARIE    CLOUDY    25  19  78 SW12      30.10R
$$
MIZ004>006-011>014-085-260400-
CENTRAL UPPER MICHIGAN

CITY           SKY/WX    TMP DP  RH WIND       PRES   REMARKS
MANISTIQUE     PTCLDY    12  11  95 CALM      30.10S
ESCANABA       PTCLDY     7   1  78 CALM      30.10R
MENOMINEE      CLEAR     18  12  79 W5        30.11R
SAWYER-GWINN   CLEAR      3   0  85 CALM      30.05R
$$
MIZ001>003-009>011-084-260400-
WESTERN UPPER MICHIGAN

CITY           SKY/WX    TMP DP  RH WIND       PRES   REMARKS
IRON MOUNTAIN  HAZE       5   0  79 CALM      30.05R VSB 3/4
HOUGHTON       CLOUDY    20  10  65 SW8       30.04R
COPPER HARBOR    N/A     22  14  71 W7        30.05R
IRONWOOD       PTCLDY     3   3 100 CALM      30.02R
$$

ABBREVIATIONS USED IN REMARKS
   TC - TEMPERATURE IN CELSIUS
  WCI - WIND CHILL INDEX
   HX - HEAT INDEX
  VSB - VISIBILITY



USA.gov is the U.S. government's official web portal to all federal, state and local government web resources and services.